Location: Augsburg
(48.3836°N, 10.8929°E)
Time: 04:34:36
(UTC+01:00)

ISS - Pass Details

Date: 15 November 2017
Orbit: 402 x 407 km, 51.6° (Epoch: 23 November)

Event Time Altitude Azimuth Distance (km) Brightness Sun altitude
Exits shadow 06:27:52 12° 263° (W) 1,358 -1.7 -9.4°
Maximum altitude 06:29:54 19° 221° (SW) 1,037 -2.0 -9.1°
Drops below altitude 10° 06:32:16 10° 174° (S) 1,449 -0.7 -8.7°
Sets 06:34:43 0° 155° (SSE) 2,303 0.7 -8.4°
